Погода в Белой Горе

Россия / Республика Саха (Якутия)     68°32′17″N   146°11′02″E
темп.,
°C
ветер,
м/с
пор.,
м/с
влажн.,
%
обл.,
%
осадки,
мм/ч
давл.,
гПа
погр.,
м
27 февраля, сб
сб2723:00−34зюз0110069 0.0 103519
02:00−33сз0010086 0.0 103519
05:00−32з119989 0.1 103419
08:00−34сз0010093 0.0 103419
11:00−32з019794 0.1 103419
14:00−29з119497 0.0 1033172
17:00−31зсз119898 0.1 103219
20:00−34вюв0010029 0.0 103319
28 февраля, вс
вс2823:00−35зсз1110037 0.0 103219
02:00−35св0010097 0.0 103219
05:00−35ссз1110098 0.0 103019
08:00−35св01100100 0.0 103119
11:00−33зсз0098100 0.0 103021
14:00−30зсз009495 0.0 1029157
17:00−33зсз009770 0.0 102819
20:00−36сз111000 0.0 102819
1 марта, пн
пн123:00−37зсз111000 0.0 102819
02:00−38зсз011000 0.0 102719
05:00−38з011009 0.0 102719
08:00−39з001001 0.0 102619
11:00−36з00964 0.0 102621
14:00−33з119223 0.0 1025167
17:00−35з119523 0.0 102419
20:00−38з1110015 0.0 102619
2 марта, вт
вт223:00−39зюз1110022 0.0 102519
02:00−39юз119968 0.0 102618
05:00−39юз1110061 0.0 102618
08:00−39юз1110024 0.0 102718
11:00−36ююз119517 0.0 102751
14:00−33юз119146 0.0 1028166
17:00−35юз119552 0.0 102819
20:00−38юз1110055 0.0 103019
3 марта, ср
ср323:00−39юз0010035 0.0 103019
02:00−39юв0010048 0.0 103019
05:00−40ю0010054 0.0 103018
08:00−39св1110091 0.0 103018
11:00−36св119694 0.0 102936
14:00−34св229292 0.0 1027197
17:00−34ссв229696 0.0 102525
20:00−35ссв3397100 0.0 102438